Home   Weather   Seelze   Past weeks

Flag for Germany Past Weather in Seelze, Lower Saxony, Germany — Yesterday and Last 2 Weeks

Now
45 °F

Passing clouds.


Feels Like: 39 °F
Forecast: 35 / 45 °F
Wind: 12 mph from Southwest

Location: Hannover

Current Time: Apr 24, 2017 at 9:36:11 am

Latest Report: Apr 24, 2017 at 8:50 am


Visibility: N/A

Pressure: 30.01 "Hg

Humidity: 66%

Dew Point: 34 °F

Location of SeelzeLocation

Past Weather in Seelze — Graph

°F

Seelze Temperature Yesterday

Maximum temperature yesterday: 48 °F (at 1:20 pm)
Minimum temperature yesterday: 36 °F (at 11:50 pm)
Average temperature yesterday: 42 °F

High & Low Weather Summary for the Past Weeks

 TemperatureHumidityPressure
High68 °F (Apr 9, 4:20 pm)100% (Apr 17, 3:50 am)30.63 "Hg (Apr 17, 3:50 am)
Low25 °F (Apr 20, 4:50 am)37% (Apr 20, 4:50 pm)29.80 "Hg (Apr 13, 12:20 am)
Average45 °F73%30.13 "Hg
* Reported Apr 9 8:20 am — Apr 24 8:20 am, Seelze, Weather by CustomWeather, © 2017

Note: Actual official high and low records may vary slightly from our data, if they occured in-between our weather recording intervals... More about our weather records

Advertising

Seelze Weather History for the Previous 24 Hours

Scroll right to see more
 ConditionsComfort  
Time TempWeatherWind HumidityBarometerVisibility
8:20 am
Mon, Apr 24
43 °FPassing clouds.9 mph71%30.01 "HgN/A
7:50 am41 °FSunny.8 mph76%30.01 "Hg10 mi
7:20 am39 °FSunny.8 mph75%30.04 "Hg10 mi
6:50 am37 °FPassing clouds.6 mph75%30.04 "HgN/A
6:20 am36 °FSunny.6 mph81%30.04 "Hg10 mi
5:50 am36 °FClear.6 mph81%30.07 "Hg10 mi
4:50 am36 °FClear.6 mph87%30.09 "Hg10 mi
4:20 am36 °FClear.7 mph87%30.09 "Hg10 mi
3:50 am36 °FClear.5 mph87%30.12 "Hg10 mi
3:20 am36 °FClear.6 mph87%30.12 "Hg10 mi
2:50 am36 °FClear.6 mph87%30.12 "Hg10 mi
2:20 am36 °FPassing clouds.5 mph87%30.15 "HgN/A
1:50 am36 °FClear.3 mph87%30.15 "Hg10 mi
1:20 am34 °FPassing clouds.5 mph87%30.15 "HgN/A
12:50 am34 °FPassing clouds.3 mph87%30.18 "HgN/A
12:20 am36 °FPassing clouds.3 mph87%30.18 "HgN/A
11:50 pm
Sun, Apr 23
36 °FPassing clouds.5 mph81%30.18 "HgN/A
11:20 pm37 °FPassing clouds.5 mph81%30.18 "HgN/A
10:50 pm37 °FPassing clouds.5 mph81%30.18 "HgN/A
10:20 pm39 °FClear.6 mph75%30.18 "Hg10 mi
9:50 pm37 °FPartly cloudy.6 mph81%30.21 "HgN/A
8:50 pm43 °FPartly cloudy.8 mph66%30.18 "HgN/A
8:20 pm45 °FBroken clouds.10 mph61%30.18 "HgN/A
7:50 pm45 °FBroken clouds.15 mph61%30.18 "HgN/A
7:20 pm46 °FBroken clouds.15 mph53%30.18 "HgN/A
6:50 pm46 °FScattered clouds.15 mph53%30.15 "HgN/A
6:20 pm46 °FScattered clouds.14 mph53%30.15 "HgN/A
5:50 pm48 °FBroken clouds.17 mph50%30.15 "HgN/A
5:20 pm48 °FBroken clouds.12 mph62%30.15 "HgN/A
4:50 pm46 °FBroken clouds.14 mph66%30.18 "HgN/A
4:20 pm45 °FBroken clouds.10 mph81%30.18 "HgN/A
3:50 pm45 °FSprinkles. Broken clouds.13 mph71%30.18 "HgN/A
3:20 pm46 °FSprinkles. Partly sunny.13 mph66%30.15 "HgN/A
2:50 pm46 °FScattered showers. Partly sunny.13 mph62%30.15 "HgN/A
2:20 pm45 °FPartly sunny.17 mph71%30.18 "HgN/A
1:50 pm45 °FPartly sunny.17 mph66%30.18 "HgN/A
1:20 pm48 °FBroken clouds.16 mph58%30.15 "HgN/A
12:50 pm46 °FScattered clouds.18 mph62%30.18 "HgN/A
12:20 pm45 °FBroken clouds.16 mph61%30.18 "HgN/A
11:50 am45 °FBroken clouds.20 mph61%30.18 "HgN/A
11:20 am45 °FPartly sunny.20 mph61%30.18 "HgN/A
10:50 am43 °FPartly sunny.18 mph66%30.18 "HgN/A
10:20 am43 °FPartly sunny.17 mph71%30.18 "HgN/A
9:50 am45 °FScattered clouds.15 mph71%30.18 "HgN/A
9:20 am43 °FBroken clouds.16 mph76%30.18 "HgN/A
Weather by CustomWeather, © 2017

See weather overviewHow to use our weather pages